TimeAKDT,TemperatureF,Dew PointF,Humidity,Sea Level PressureIn,VisibilityMPH,Wind Direction,Wind SpeedMPH,Gust SpeedMPH,PrecipitationIn,Events,Conditions,WindDirDegrees,DateUTC
12:53 AM,15.1,12.0,88,30.02,3.0,Calm,Calm,-,0.00,Snow,Light Snow,0,2012-10-30 08:53:00
1:53 AM,14.0,10.9,88,30.03,4.0,Calm,Calm,-,0.00,Snow,Light Snow,0,2012-10-30 09:53:00
2:53 AM,12.9,10.0,88,30.03,3.0,Calm,Calm,-,0.01,Snow,Light Snow,0,2012-10-30 10:53:00
3:53 AM,8.1,6.1,92,30.04,5.0,Calm,Calm,-,0.00,Snow,Light Snow,0,2012-10-30 11:53:00
4:53 AM,5.0,3.0,92,30.04,8.0,Calm,Calm,-,0.00,Fog,Patches of Fog,0,2012-10-30 12:53:00
5:53 AM,-0.0,-2.0,91,30.05,10.0,Calm,Calm,-,N/A,,Mostly Cloudy,0,2012-10-30 13:53:00
6:53 AM,-2.0,-6.0,83,30.05,10.0,Calm,Calm,-,N/A,,Mostly Cloudy,0,2012-10-30 14:53:00
7:53 AM,-4.0,-7.1,87,30.06,10.0,Calm,Calm,-,N/A,,Scattered Clouds,0,2012-10-30 15:53:00
8:53 AM,-4.0,-8.0,83,30.07,10.0,Calm,Calm,-,N/A,,Scattered Clouds,0,2012-10-30 16:53:00
9:53 AM,-5.1,-9.0,83,30.08,10.0,Calm,Calm,-,N/A,Fog,Patches of Fog,0,2012-10-30 17:53:00
10:53 AM,-2.9,-7.1,82,30.09,10.0,Calm,Calm,-,N/A,,Mostly Cloudy,0,2012-10-30 18:53:00
11:53 AM,-2.0,-5.1,87,30.09,10.0,Calm,Calm,-,N/A,,Scattered Clouds,0,2012-10-30 19:53:00
12:53 PM,8.1,3.9,83,30.08,10.0,Calm,Calm,-,N/A,,Scattered Clouds,0,2012-10-30 20:53:00
1:53 PM,12.9,9.0,84,30.08,10.0,NNE,3.5,-,N/A,,Scattered Clouds,30,2012-10-30 21:53:00
2:53 PM,12.9,9.0,84,30.07,10.0,Calm,Calm,-,N/A,,Scattered Clouds,0,2012-10-30 22:53:00
3:53 PM,18.0,10.0,71,30.07,10.0,North,9.2,-,N/A,,Scattered Clouds,350,2012-10-30 23:53:00
4:53 PM,18.0,10.0,71,30.06,10.0,North,9.2,-,N/A,,Scattered Clouds,350,2012-10-31 00:53:00
5:53 PM,15.1,8.1,74,30.05,10.0,North,8.1,-,N/A,,Scattered Clouds,350,2012-10-31 01:53:00
6:53 PM,12.9,7.0,77,30.05,10.0,North,4.6,-,N/A,,Scattered Clouds,360,2012-10-31 02:53:00
7:53 PM,15.1,8.1,74,30.06,10.0,North,9.2,-,N/A,,Scattered Clouds,350,2012-10-31 03:53:00
8:53 PM,16.0,7.0,68,30.06,10.0,North,10.4,-,N/A,,Mostly Cloudy,360,2012-10-31 04:53:00
9:53 PM,14.0,6.1,71,30.05,10.0,North,9.2,-,N/A,,Mostly Cloudy,10,2012-10-31 05:53:00
10:53 PM,15.1,6.1,68,30.06,10.0,North,11.5,-,N/A,,Mostly Cloudy,360,2012-10-31 06:53:00
11:53 PM,15.1,7.0,70,30.05,10.0,NNE,6.9,-,N/A,,Mostly Cloudy,20,2012-10-31 07:53:00